Regional Weather Roundup
Issued by NWS

Home | Current Version | Previous Version | Graphics & Text | Print | Product List | Glossary On
Versions: 1 2 3 4 5 6 7 8 9 10 11 12 13 14 15 16 17 18 19 20 21 22 23 24 25 26 27 28 29 30 31 32 33 34 35 36 37 38 39 40 41 42 43 44 45 46 47 48 49 50
000
ASUS43 KFSD 041602
RWRSD

WEATHER ROUNDUP FOR SOUTH DAKOTA
NATIONAL WEATHER SERVICE SIOUX FALLS SD
1100 AM CDT MON MAY 04 2015

NOTE: "FAIR" INDICATES FEW OR NO CLOUDS BELOW 12,000 FEET WITH NO
SIGNIFICANT WEATHER AND/OR OBSTRUCTIONS TO VISIBILITY.


SDZ001>005-009-010-012>017-041700-
NORTHWEST AND NORTH CENTRAL SOUTH DAKOTA

CITY           SKY/WX    TMP DP  RH WIND       PRES   REMARKS
BUFFALO          N/A     48  43  82 S24       30.14S
FAITH            N/A     55  23  28 S9        30.22S
MOBRIDGE       CLOUDY    56  36  47 CALM      30.21F
$$

SDZ012>016-024>037-041>051-057-063-072>074-041700-
SOUTHWEST AND SOUTH CENTRAL SOUTH DAKOTA

CITY           SKY/WX    TMP DP  RH WIND       PRES   REMARKS
RAPID CTY ARPT LGT RAIN  46  40  79 NE5       30.23R
PIERRE         CLOUDY    60  27  28 VRB6      30.21S
CUSTER         CLOUDY    39  32  76 E9        30.20S
ELLSWORTH AFB  CLOUDY    45  39  81 E2        30.23R
PHILIP         CLOUDY    55  26  32 E3        30.22R
PINE RIDGE     LGT RAIN  49  36  61 E8        30.19S
WINNER         FAIR      62  25  24 E16       30.20S
$$

SDZ004>011-016>023-039-040-041700-
NORTHEAST SOUTH DAKOTA

CITY           SKY/WX    TMP DP  RH WIND       PRES   REMARKS
ABERDEEN       PTSUNNY   66  29  24 N5        30.22R
WATERTOWN      PTSUNNY   64  26  23 E9        30.20R
BROOKINGS      MOSUNNY   63  30  29 NE13      30.19R
SISSETON         N/A     65  29  25 E8        30.20R
$$

SDZ017-020-022-023-036>040-048>070-041700-
SOUTHEAST SOUTH DAKOTA

CITY           SKY/WX    TMP DP  RH WIND       PRES   REMARKS
SIOUX FALLS    PTSUNNY   66  32  28 E17       30.18R
HURON          MOSUNNY   66  31  27 N9        30.20S
MITCHELL       SUNNY     67  26  21 NE12      30.18S
YANKTON        PTSUNNY   63  30  29 NE15      30.15F
$$

ABBREVIATIONS USED IN REMARKS
   TC - TEMPERATURE IN CELSIUS
  WCI - WIND CHILL INDEX
   HX - HEAT INDEX
  VSB - VISIBILITY



USA.gov is the U.S. government's official web portal to all federal, state and local government web resources and services.